Location: Feydey
(46.3431°N, 7.0106°E)
Time: 15:22:56
(UTC+00:00)

Cosmos 2278 Rocket - Pass Details

Date: 20 June 2021
Orbit: 840 x 847 km, 71.0° (Epoch: 02 August)

Event Time Altitude Azimuth Distance (km) Brightness Sun altitude
Rises 21:08:34 0° 337° (NNW) 3,411 7.2 -12.9°
Reaches altitude 10° 21:11:09 10° 344° (NNW) 2,474 5.9 -13.1°
Maximum altitude 21:16:34 44° 56° (NE) 1,156 2.9 -13.6°
Enters shadow 21:20:41 17° 122° (ESE) 2,028 3.7 -14.0°
